[[{"header":{"parameterUnit":"m.s-1","parameterCategory":1,"la1":30.2991,"la2":30.254,"lo1":-89.0895,"lo2":-89.0444,"dy":0.0017,"dx":0.0017,"nx":28,"ny":28,"refTime":"2023-10-21T03:00:00:Z","depth":0,"parameterNumber":2,"parameterNumberName":"U-component_of_WINDS"},"data":[0,0,0,0,0,0,0,0,0,0,0,0,0,0,0,0,0,0,0,0,0,0,0,0,0,0,0,0,0,0,0,0,0,0,0,0,0,0,0,0,0,0,0,0,0,0,0,0,0,0,0,0,0,0,0,0,0,0,0.596,0.5961,0,0.6007,0.6007,0.6008,0.5969,0.5968,0.5966,0.5964,0.6015,0.6018,0.6021,0,0,0,0,0,0,0,0,0,0,0,0,0,0.5842,0.5845,0.596,0.5961,0.5962,0.6007,0.6007,0.6008,0.5969,0.5967,0.5966,0.5964,0.6014,0.6017,0.6021,0,0,0,0,0,0,0,0,0,0,0,0,0,0.5892,0.5845,0.596,0.5948,0.5947,0.6006,0.6007,0.6008,0.597,0.5967,0.5965,0.5963,0.6013,0.6017,0.6021,0.6096,0,0,0.6034,0.6036,0,0,0,0,0,0,0,0,0.5889,0.5896,0.5949,0.5949,0.5948,0.598,0.5984,0.6038,0.597,0.5961,0.5964,0.5962,0.6005,0.601,0.6024,0.6099,0.6101,0.6035,0.6037,0.6039,0.604,0,0,0,0,0,0,0,0.5886,0.5894,0.5979,0.595,0.5949,0.5941,0.5945,0.5994,0.5997,0.5962,0.5959,0.5965,0.6005,0.602,0.6025,0.6102,0.6035,0.6038,0.6041,0.6043,0.6242,0.6245,0,0,0,0,0,0,0.5883,0.5891,0.5977,0.598,0.5912,0.5945,0.595,0.5972,0.5996,0.5997,0.5967,0.5963,0.6014,0.602,0.6027,0.6117,0.6039,0.6043,0.6046,0.6239,0.6243,0.6245,0,0,0,0,0,0,0.5881,0.5891,0.5975,0.5935,0.5945,0.595,0.5975,0.5974,0.599,0.6,0.6,0.5982,0.6012,0.6021,0.608,0.6119,0.6045,0.6049,0.6236,0.624,0.6244,0.6299,0,0,0,0,0,0,0.5877,0.589,0.5918,0.5936,0.5947,0.6027,0.5977,0.5977,0.5997,0.5992,0.6014,0.6016,0.6011,0.6073,0.6084,0.6123,0.6052,0.6233,0.6238,0.6243,0.6294,0.6304,0.6313,0,0,0,0,0,0.5873,0.5932,0.592,0.593,0.5982,0.6029,0.6035,0.6028,0.6,0.6029,0.6035,0.6015,0.6112,0.608,0.6091,0.6132,0.623,0.6236,0.6242,0.6289,0.6302,0.6313,0,0,0,0,0,0,0.592,0.5934,0.5921,0.5987,0.6007,0.6022,0.6058,0.6042,0.6071,0.6066,0.6057,0.6062,0.6124,0.6134,0.6097,0.6207,0.6167,0.6176,0.6199,0.6211,0.6221,0.6218,0.6056,0,0,0,0,0,0.5937,0.5973,0.5984,0.6041,0.6052,0.6053,0.6073,0.6066,0.6087,0.6096,0.6106,0.6129,0.6164,0.6188,0.6221,0.6294,0.63,0.6329,0.6339,0.6347,0.6355,0.6396,0.6409,0.6266,0.6266,0.6265,0,0,0.5975,0.5987,0.601,0.6051,0.6066,0.6104,0.6061,0.6103,0.6132,0.6102,0.6159,0.6168,0.6192,0.6258,0.6288,0.6268,0.6395,0.6354,0.6361,0.6364,0.6403,0.6417,0.6429,0.627,0.6269,0.6268,0,0,0.6062,0.6075,0.6124,0.614,0.6162,0.6163,0.6175,0.6193,0.6198,0.6254,0.6233,0.6268,0.6329,0.6347,0.6365,0.646,0.6443,0.6471,0.6524,0.6564,0.6575,0.6585,0.6621,0.6633,0.6479,0.6479,0.6479,0,0.6106,0.6162,0.6152,0.6196,0.6216,0.619,0.6241,0.6257,0.6289,0.6304,0.6281,0.6358,0.6372,0.6444,0.6467,0.6481,0.6496,0.6469,0.6574,0.6584,0.6593,0.6627,0.664,0.6483,0.6482,0.6482,0.6482,0,0.6216,0.6255,0.6293,0.6324,0.6348,0.6395,0.6393,0.6419,0.641,0.6413,0.6471,0.6488,0.6524,0.654,0.6532,0.6611,0.6598,0.6575,0.6535,0.661,0.6642,0.6655,0.6488,0.6486,0.6485,0.6485,0,0,0.6334,0.636,0.6374,0.6388,0.6412,0.6443,0.649,0.6525,0.6547,0.6571,0.6611,0.6664,0.6642,0.6662,0.6656,0.6691,0.6767,0.6663,0.6664,0.6683,0.6857,0.6875,0.689,0.6756,0.6758,0.676,0.6856,0,0.6424,0.6504,0.6497,0.6574,0.6611,0.6587,0.6628,0.6648,0.6653,0.6686,0.6691,0.6729,0.6698,0.671,0.6743,0.6751,0.6802,0.6744,0.6795,0.6797,0.679,0.6907,0.6926,0.7015,0.6868,0.687,0.6871,0,0.6539,0.6566,0.6647,0.6666,0.6681,0.6718,0.675,0.6781,0.6804,0.6805,0.6827,0.6815,0.6864,0.6822,0.689,0.685,0.6871,0.6878,0.6881,0.6886,0.6839,0.6916,0.7043,0.7057,0.6891,0.6889,0.6888,0,0.6619,0.6676,0.6732,0.6745,0.6767,0.6794,0.6805,0.6825,0.6847,0.6875,0.689,0.6924,0.6943,0.697,0.6969,0.6938,0.7038,0.6996,0.7042,0.7042,0.7065,0.7064,0.7198,0.7076,0.7076,0.7076,0.7076,0,0.6721,0.6771,0.6768,0.6802,0.6859,0.685,0.6907,0.6915,0.6933,0.6969,0.6951,0.6986,0.6981,0.7017,0.7016,0.7073,0.7082,0.7085,0.7084,0.7087,0.7087,0.7101,0.7095,0.7079,0.7079,0.7078,0.7077,0,0.682,0.6819,0.6879,0.6895,0.6901,0.6942,0.6957,0.699,0.6993,0.704,0.7051,0.7056,0.7097,0.7098,0.7145,0.7144,0.7215,0.7207,0.7207,0.7206,0.7253,0.7249,0.7402,0.7422,0.7286,0.7287,0.7289,0,0.6885,0.6923,0.6944,0.6967,0.6979,0.7016,0.7038,0.7032,0.7056,0.7085,0.7115,0.7154,0.7185,0.7252,0.7262,0.7298,0.7291,0.7342,0.7297,0.7299,0.7294,0.7292,0.7296,0.7352,0.7353,0.7354,0.7355,0,0.7001,0.6999,0.7031,0.7064,0.7091,0.7116,0.714,0.716,0.7157,0.7185,0.7226,0.725,0.7299,0.7338,0.7374,0.7386,0.7371,0.737,0.7383,0.7386,0.7386,0.7388,0.7233,0.7366,0.7365,0.7364,0.7364,0.7363,0.7086,0.7119,0.7139,0.7176,0.7193,0.7216,0.7248,0.7255,0.7289,0.7327,0.7322,0.7369,0.7391,0.7437,0.7453,0.749,0.7473,0.7491,0.7496,0.7501,0.7506,0.7379,0.7497,0.7496,0.7496,0.7496,0.7495,0,0.7202,0.7214,0.7248,0.7281,0.7311,0.7292,0.7318,0.7344,0.7385,0.7407,0.7438,0.7486,0.7525,0.7537,0.7575,0.7603,0.7597,0.7613,0.7611,0.7615,0.7519,0.7505,0.7617,0.7617,0.7617,0.7617,0.7617,0.7617,0.7266,0.7322,0.7322,0.7387,0.7399,0.7443,0.746,0.7481,0.7499,0.7553,0.7585,0.7592,0.7611,0.765,0.7686,0.7688,0.7704,0.7723,0.7723,0.7634,0.7622,0.761,0.7596,0.7726,0.7726,0.7816,0.7817,0.7817]},{"header":{"parameterUnit":"m.s-1","parameterCategory":1,"la1":30.2991,"la2":30.254,"lo1":-89.0895,"lo2":-89.0444,"dy":0.0017,"dx":0.0017,"nx":28,"ny":28,"refTime":"2023-10-21T03:00:00:Z","depth":0,"parameterNumber":3,"parameterNumberName":"V-component_of_WINDS"},"data":[0,0,0,0,0,0,0,0,0,0,0,0,0,0,0,0,0,0,0,0,0,0,0,0,0,0,0,0,0,0,0,0,0,0,0,0,0,0,0,0,0,0,0,0,0,0,0,0,0,0,0,0,0,0,0,0,0,0,0.0894,0.0894,0,0.0923,0.0924,0.0924,0.0902,0.0901,0.09,0.0899,0.093,0.0932,0.0934,0,0,0,0,0,0,0,0,0,0,0,0,0,0.0818,0.082,0.0893,0.0894,0.0894,0.0923,0.0924,0.0924,0.0902,0.0901,0.09,0.0899,0.093,0.0932,0.0934,0,0,0,0,0,0,0,0,0,0,0,0,0,0.085,0.082,0.0893,0.0887,0.0886,0.0923,0.0924,0.0924,0.0902,0.0901,0.0899,0.0898,0.0929,0.0932,0.0934,0.098,0,0,0.0942,0.0943,0,0,0,0,0,0,0,0,0.0848,0.0853,0.0887,0.0887,0.0887,0.0907,0.0909,0.0943,0.0903,0.0896,0.0899,0.0897,0.0924,0.0927,0.0936,0.0981,0.0982,0.0942,0.0944,0.0945,0.0946,0,0,0,0,0,0,0,0.0846,0.0851,0.0905,0.0888,0.0888,0.0883,0.0885,0.0915,0.0918,0.0897,0.0895,0.0899,0.0924,0.0933,0.0936,0.0983,0.0942,0.0945,0.0946,0.0947,0.1068,0.107,0,0,0,0,0,0,0.0844,0.085,0.0904,0.0906,0.0864,0.0885,0.0888,0.0902,0.0918,0.0918,0.09,0.0898,0.093,0.0933,0.0937,0.0993,0.0945,0.0948,0.0949,0.1067,0.1069,0.107,0,0,0,0,0,0,0.0843,0.0849,0.0903,0.0878,0.0884,0.0888,0.0904,0.0904,0.0913,0.092,0.0921,0.091,0.0929,0.0934,0.097,0.0993,0.0949,0.0951,0.1065,0.1067,0.107,0.1103,0,0,0,0,0,0,0.0841,0.0849,0.0866,0.0878,0.0885,0.0935,0.0905,0.0905,0.0918,0.0915,0.0929,0.093,0.0928,0.0966,0.0972,0.0996,0.0953,0.1063,0.1066,0.1069,0.11,0.1106,0.1112,0,0,0,0,0,0.0838,0.0874,0.0867,0.0874,0.0907,0.0936,0.094,0.0937,0.092,0.0937,0.0942,0.093,0.0989,0.097,0.0977,0.1002,0.1061,0.1065,0.1069,0.1097,0.1105,0.1112,0,0,0,0,0,0,0.0865,0.0876,0.0868,0.0909,0.0922,0.0932,0.0954,0.0945,0.0963,0.096,0.0955,0.0958,0.0996,0.1002,0.098,0.1047,0.1023,0.1028,0.1042,0.105,0.1056,0.1054,0.0955,0,0,0,0,0,0.0876,0.0898,0.0906,0.0942,0.0948,0.095,0.0963,0.0959,0.0972,0.0978,0.0985,0.0999,0.1021,0.1035,0.1056,0.11,0.1104,0.1121,0.1127,0.1132,0.1137,0.1163,0.1171,0.1083,0.1083,0.1082,0,0,0.0898,0.0906,0.0921,0.0947,0.0957,0.0981,0.0955,0.0981,0.1,0.0982,0.1017,0.1022,0.1037,0.1078,0.1096,0.1084,0.1162,0.1137,0.1141,0.1143,0.1167,0.1176,0.1183,0.1085,0.1085,0.1084,0,0,0.0951,0.0959,0.099,0.1001,0.1015,0.1016,0.1024,0.1036,0.1039,0.1074,0.1061,0.1083,0.112,0.1132,0.1143,0.1201,0.1191,0.1208,0.124,0.1265,0.1272,0.1278,0.1301,0.1308,0.1213,0.1213,0.1213,0,0.0977,0.1013,0.1007,0.1035,0.1048,0.1032,0.1064,0.1074,0.1095,0.1105,0.1091,0.1138,0.1147,0.1191,0.1206,0.1214,0.1223,0.1207,0.1271,0.1277,0.1283,0.1305,0.1313,0.1215,0.1214,0.1214,0.1214,0,0.1045,0.107,0.1093,0.1114,0.1129,0.1158,0.1158,0.1174,0.1169,0.1171,0.1207,0.1217,0.124,0.125,0.1245,0.1294,0.1286,0.1272,0.1247,0.1294,0.1314,0.1322,0.1218,0.1217,0.1216,0.1216,0,0,0.1117,0.1134,0.1143,0.1153,0.1168,0.1188,0.1217,0.1239,0.1254,0.1268,0.1294,0.1326,0.1313,0.1325,0.1322,0.1343,0.1391,0.1326,0.1327,0.1339,0.1447,0.1459,0.1469,0.1384,0.1385,0.1386,0.1446,0,0.1172,0.1223,0.1219,0.1268,0.1292,0.1277,0.1303,0.1316,0.1319,0.134,0.1343,0.1367,0.1347,0.1355,0.1376,0.1381,0.1413,0.1376,0.1408,0.141,0.1407,0.1479,0.1491,0.1548,0.1454,0.1455,0.1456,0,0.1244,0.1261,0.1312,0.1325,0.1335,0.1358,0.1379,0.1399,0.1413,0.1414,0.1428,0.1421,0.1451,0.1425,0.1467,0.1442,0.1455,0.146,0.1462,0.1466,0.1437,0.1487,0.1565,0.1574,0.1468,0.1467,0.1466,0,0.1293,0.1329,0.1365,0.1374,0.1389,0.1406,0.1413,0.1426,0.144,0.1458,0.1467,0.1488,0.1501,0.1517,0.1517,0.1497,0.156,0.1533,0.1563,0.1563,0.1578,0.1578,0.1662,0.1584,0.1583,0.1583,0.1583,0,0.1356,0.1389,0.1388,0.141,0.1446,0.1441,0.1477,0.1482,0.1494,0.1517,0.1505,0.1528,0.1524,0.1547,0.1546,0.1582,0.1587,0.159,0.159,0.1592,0.1592,0.1601,0.1598,0.1585,0.1585,0.1585,0.1584,0,0.1418,0.1419,0.1457,0.1468,0.1472,0.1498,0.1508,0.153,0.1532,0.1562,0.1568,0.1572,0.1598,0.1598,0.1628,0.1627,0.1672,0.1666,0.1668,0.1667,0.1697,0.1695,0.1792,0.1805,0.1717,0.1718,0.1718,0,0.1459,0.1484,0.1498,0.1513,0.1521,0.1545,0.156,0.1556,0.1572,0.159,0.1609,0.1634,0.1654,0.1696,0.1702,0.1725,0.1721,0.1753,0.1724,0.1726,0.1724,0.1723,0.1726,0.176,0.1761,0.1761,0.1762,0,0.1533,0.1532,0.1553,0.1575,0.1592,0.1609,0.1625,0.1637,0.1636,0.1654,0.168,0.1696,0.1726,0.1752,0.1774,0.1782,0.1773,0.1771,0.1779,0.1783,0.1783,0.1785,0.1685,0.1769,0.1768,0.1768,0.1767,0.1767,0.1587,0.1609,0.1622,0.1647,0.1658,0.1673,0.1694,0.1699,0.1721,0.1745,0.1742,0.1772,0.1786,0.1815,0.1825,0.1849,0.1838,0.1849,0.1853,0.1856,0.186,0.1778,0.1852,0.1852,0.1852,0.1852,0.1852,0,0.1661,0.167,0.1692,0.1714,0.1734,0.1722,0.1739,0.1756,0.1783,0.1797,0.1817,0.1848,0.1872,0.188,0.1904,0.1922,0.1918,0.1928,0.1928,0.193,0.1868,0.1859,0.1931,0.1931,0.1931,0.1931,0.1931,0.1931,0.1703,0.1739,0.174,0.1783,0.179,0.182,0.1831,0.1845,0.1856,0.1892,0.1912,0.1917,0.1929,0.1954,0.1976,0.1978,0.1988,0.2,0.2001,0.1942,0.1935,0.1927,0.1919,0.2002,0.2002,0.2061,0.2062,0.2062]}]]